Livermore, CA

8:54 AM PDT on May 24, 2018 (GMT -0700)
Livermore Municipal

Weather History for KLVK - November, 2012

Change the Weather History Date:

Sunday, November 11, 2012

  Actual Average Record
Temperature  
Mean Temperature 46 °F 55 °F  
Max Temperature 58 °F 67 °F 87 °F (1955)
Min Temperature 34 °F 44 °F 28 °F (1978)
Degree Days  
Heating Degree Days 19 10  
Month to date heating degree days 81 92  
Since 1 July heating degree days 168 220  
Cooling Degree Days 0 0  
Month to date cooling degree days 0 0  
Year to date cooling degree days 957 829  
Moisture  
Dew Point 36 °F    
Average Humidity 68    
Maximum Humidity 92    
Minimum Humidity 43    
Precipitation  
Precipitation 0.00 in 0.06 in 0.94 in (1983)
Month to date precipitation 0.47 0.74  
Year to date precipitation 7.93 11.79  
Since 1 July precipitation 0.87  
Sea Level Pressure  
Sea Level Pressure 30.34 in    
Wind  
Wind Speed 3 mph (ENE)    
Max Wind Speed 13 mph    
Max Gust Speed 18 mph    
Visibility 10 miles    
Events      
T = Trace of Precipitation, MM = Missing Value Source: NWS Daily Summary

Daily Weather History Graph

Daily Weather History Graph

Search for Another Location

Airport or City:

Astronomy

Nov. 11, 2012 Rise Set
Actual Time 6:43 AM PST 4:58 PM PST
Civil Twilight 6:15 AM PST 5:26 PM PST
Nautical Twilight 5:44 AM PST 5:57 PM PST
Astronomical Twilight 5:13 AM PST 6:28 PM PST
Moon 4:06 AM PST (11/11) 3:24 PM PST (11/11)
Length of Visible Light 11h 10m
Length of Day
10h 15m
Waning Crescent, 6% of the Moon is Illuminated
Nov 11
Waning Crescent
Nov 13
New
Nov 20
First Quarter
Nov 28
Full
Dec 6
Last Quarter

Hourly Weather History & Observations

Time (PST) Temp. Windchill Dew Point Humidity Pressure Visibility Wind Dir Wind Speed Gust Speed Precip Events Conditions
12:53 AM 39.9 °F - 36.0 °F 86% 30.27 in 10.0 mi Calm Calm - N/A   Clear
1:53 AM 39.0 °F - 36.0 °F 89% 30.27 in 10.0 mi Calm Calm - N/A   Clear
2:53 AM 37.0 °F - 34.0 °F 89% 30.28 in 10.0 mi Calm Calm - N/A   Clear
3:53 AM 37.0 °F - 34.0 °F 89% 30.28 in 10.0 mi Calm Calm - N/A   Clear
4:53 AM 37.0 °F - 34.0 °F 89% 30.30 in 10.0 mi Calm Calm - N/A   Clear
5:53 AM 35.1 °F - 33.1 °F 92% 30.31 in 10.0 mi Calm Calm - N/A   Clear
6:53 AM 36.0 °F - 33.1 °F 89% 30.33 in 10.0 mi Calm Calm - N/A   Clear
7:53 AM 39.0 °F - 36.0 °F 89% 30.36 in 10.0 mi Calm Calm - N/A   Clear
8:53 AM 44.1 °F - 37.0 °F 76% 30.37 in 10.0 mi Calm Calm - N/A   Clear
9:53 AM 48.0 °F - 37.9 °F 68% 30.38 in 10.0 mi Calm Calm - N/A   Clear
10:53 AM 53.1 °F - 39.0 °F 59% 30.38 in 10.0 mi Calm Calm - N/A   Clear
11:53 AM 55.9 °F - 39.0 °F 53% 30.36 in 10.0 mi ENE 8.1 mph - N/A   Clear
12:53 PM 55.9 °F - 37.0 °F 49% 30.34 in 10.0 mi ENE 10.4 mph - N/A   Clear
1:53 PM 57.0 °F - 36.0 °F 45% 30.33 in 10.0 mi ENE 10.4 mph - N/A   Clear
2:53 PM 57.0 °F - 36.0 °F 45% 30.33 in 10.0 mi ENE 9.2 mph - N/A   Clear
3:53 PM 55.9 °F - 35.1 °F 45% 30.33 in 10.0 mi ENE 9.2 mph - N/A   Clear
4:53 PM 54.0 °F - 37.0 °F 53% 30.34 in 10.0 mi ENE 8.1 mph - N/A   Clear
5:53 PM 50.0 °F - 36.0 °F 59% 30.35 in 10.0 mi ENE 6.9 mph - N/A   Clear
6:53 PM 48.9 °F - 36.0 °F 61% 30.36 in 10.0 mi NE 6.9 mph - N/A   Clear
7:53 PM 46.9 °F - 36.0 °F 66% 30.36 in 10.0 mi East 3.5 mph - N/A   Clear
8:53 PM 46.0 °F - 37.0 °F 71% 30.38 in 10.0 mi Calm Calm - N/A   Clear
9:53 PM 44.1 °F - 36.0 °F 73% 30.38 in 10.0 mi Calm Calm - N/A   Clear
10:53 PM 42.1 °F 40.2 °F 36.0 °F 79% 30.38 in 10.0 mi East 3.5 mph - N/A   Clear
11:53 PM 42.1 °F - 35.1 °F 76% 30.38 in 10.0 mi Calm Calm - N/A   Clear